Weather History for LEMO - August, 2013

Change the Weather History Date:

Tuesday, August 20, 2013

  Actual Average Record
Temperature  
Mean Temperature 88 °F -  
Max Temperature 105 °F 87 °F 107 °F (2012)
Min Temperature 71 °F 63 °F 59 °F (2008)
Cooling Degree Days 23    
Growing Degree Days 38 (Base 50)    
Moisture  
Dew Point 60 °F    
Average Humidity 41    
Maximum Humidity 61    
Minimum Humidity 22    
Precipitation  
Precipitation 0.00 in - - ()
Sea Level Pressure  
Sea Level Pressure 30.01 in    
Wind  
Wind Speed 3 mph ()    
Max Wind Speed 10 mph    
Max Gust Speed -    
Averages and records for this station are not official NWS values.
T = Trace of Precipitation, MM = Missing Value Source: Averaged Metar Reports

Daily Weather History Graph

Daily Weather History Graph

Search for Another Location

Airport or City:

Trip Planner

Search our weather history database for the weather conditions in past years. The results will help you decide how hot, cold, wet, or windy it might be!

Date:

Astronomy

Aug. 20, 2013 Rise Set
Actual Time 7:43 AM CEST 9:07 PM CEST
Civil Twilight 7:15 AM CEST 9:35 PM CEST
Nautical Twilight 6:43 AM CEST 10:07 PM CEST
Astronomical Twilight 6:08 AM CEST 10:41 PM CEST
Moon 8:31 PM CEST (8/20) 6:56 AM CEST (8/20)
Length of Visible Light 14h 19m
Length of Day
13h 24m
Waxing Gibbous, 99% of the Moon is Illuminated
Aug 20
Waxing Gibbous
Aug 21
Full
Aug 28
Last Quarter
Sep 5
New
Sep 12
First Quarter

Hourly Weather History & Observations

Time (CEST) Temp. Heat Index Dew Point Humidity Pressure Visibility Wind Dir Wind Speed Gust Speed Precip Events Conditions
12:00 AM 82.4 °F 83.9 °F 64.4 °F 54% 30.01 in - Variable 1.2 mph - N/A   Clear
1:00 AM 80.6 °F 81.8 °F 62.6 °F 54% 30.04 in - South 3.5 mph - N/A   Clear
2:00 AM 77.0 °F - 62.6 °F 61% 30.04 in - SSE 3.5 mph - N/A   Clear
3:00 AM 75.2 °F - 60.8 °F 61% 30.04 in - SE 3.5 mph - N/A   Clear
4:00 AM 75.2 °F - 60.8 °F 61% 30.04 in - Variable 2.3 mph - N/A   Clear
6:00 AM 73.4 °F - 59.0 °F 61% 30.01 in - Variable 2.3 mph - N/A   Clear
7:00 AM 71.6 °F - 57.2 °F 60% 30.01 in - Calm Calm - N/A   Clear
8:00 AM 71.6 °F - 57.2 °F 60% 30.04 in - Calm Calm - N/A   Clear
9:00 AM 77.0 °F - 57.2 °F 50% 30.04 in - Calm Calm - N/A   Clear
10:00 AM 86.0 °F 84.9 °F 57.2 °F 37% 30.04 in - Calm Calm - N/A   Clear
11:00 AM 89.6 °F 88.1 °F 57.2 °F 33% 30.04 in - Calm Calm - N/A   Clear
12:00 PM 96.8 °F 95.8 °F 57.2 °F 27% 30.04 in - Variable 4.6 mph - N/A   Clear
1:00 PM 98.6 °F 97.6 °F 57.2 °F 25% 30.04 in - Calm Calm - N/A   Clear
2:00 PM 102.2 °F 101.4 °F 57.2 °F 22% 30.01 in - Calm Calm - N/A   Clear
3:00 PM 104.0 °F 104.6 °F 59.0 °F 23% 30.01 in - Variable 1.2 mph - N/A   Clear
4:00 PM 104.0 °F 104.6 °F 59.0 °F 23% 29.98 in - West 8.1 mph - N/A   Clear
5:00 PM 105.8 °F 106.8 °F 59.0 °F 22% 29.98 in - West 6.9 mph - N/A   Clear
6:00 PM 104.0 °F 105.3 °F 60.8 °F 24% 29.98 in - West 6.9 mph - N/A   Clear
7:00 PM 102.2 °F 103.6 °F 60.8 °F 26% 29.95 in - West 10.4 mph - N/A   Clear
8:00 PM 98.6 °F 100.0 °F 62.6 °F 30% 29.95 in - West 10.4 mph - N/A   Clear
9:00 PM 91.4 °F 93.2 °F 64.4 °F 41% 29.98 in - West 3.5 mph - N/A   Clear
10:00 PM 87.8 °F 89.4 °F 64.4 °F 46% 30.01 in - West 4.6 mph - N/A   Clear
11:00 PM 84.2 °F 85.6 °F 64.4 °F 51% 30.01 in - West 5.8 mph - N/A   Clear